Beauty, KY

1:15 AM EST on February 12, 2016 (GMT -0500)
Prestonsburg

Weather History for KK22 - November, 2012

Change the Weather History Date:

Wednesday, November 28, 2012

  Actual Average (KJKL) Record (KJKL)
Temperature  
Mean Temperature 36 °F 44 °F  
Max Temperature 42 °F 52 °F 76 °F (2005)
Min Temperature 30 °F 35 °F 16 °F (2013)
Degree Days  
Heating Degree Days 29 22  
Month to date heating degree days 460  
Since 1 July heating degree days 757  
Cooling Degree Days 0 0  
Month to date cooling degree days 0  
Year to date cooling degree days 1150  
Moisture  
Dew Point 28 °F    
Average Humidity 74    
Maximum Humidity 93    
Minimum Humidity 54    
Precipitation  
Precipitation 0.00 in 0.14 in 0.92 in (1985)
Month to date precipitation 3.67  
Year to date precipitation 43.87  
Snow  
Snow - 0.00 in 4.30 in (1995)
Month to date snowfall 0.4  
Since 1 July snowfall 0.5  
Since 1 September snowfall 0.5  
Snow Depth -    
Sea Level Pressure  
Sea Level Pressure 30.37 in    
Wind  
Wind Speed 2 mph ()    
Max Wind Speed 7 mph    
Max Gust Speed -    
Visibility 9.9 miles    
Events      
T = Trace of Precipitation, MM = Missing Value Source: Averaged Metar Reports

Daily Weather History Graph

Daily Weather History Graph

Search for Another Location

Airport or City:

Trip Planner

Search our weather history database for the weather conditions in past years. The results will help you decide how hot, cold, wet, or windy it might be!

Date:

Astronomy

Nov. 28, 2012 Rise Set
Actual Time 7:24 AM EST 5:12 PM EST
Civil Twilight 6:55 AM EST 5:41 PM EST
Nautical Twilight 6:23 AM EST 6:13 PM EST
Astronomical Twilight 5:51 AM EST 6:45 PM EST
Moon 5:26 PM EST (11/28) 7:21 AM EST (11/28)
Length of Visible Light 10h 45m
Length of Day
9h 47m
Full, 100% of the Moon is Illuminated
Nov 28
Full
Dec 6
Last Quarter
Dec 13
New
Dec 20
First Quarter
Dec 28
Full

Hourly Weather History & Observations

Time (EST) Temp. Windchill Dew Point Humidity Pressure Visibility Wind Dir Wind Speed Gust Speed Precip Events Conditions
12:15 AM 35.2 °F - 33.4 °F 93% 30.29 in 7.0 mi Calm Calm - N/A   Overcast
12:55 AM 35.2 °F - 33.1 °F 92% 30.28 in 10.0 mi Calm Calm - N/A   Overcast
1:15 AM 35.2 °F - 32.9 °F 91% 30.28 in 10.0 mi Calm Calm - N/A   Overcast
1:35 AM 35.2 °F - 33.1 °F 92% 30.28 in 10.0 mi Calm Calm - N/A   Overcast
1:55 AM 35.1 °F - 33.1 °F 92% 30.28 in 7.0 mi Calm Calm - N/A   Overcast
2:15 AM 35.2 °F - 32.4 °F 89% 30.29 in 10.0 mi Calm Calm - N/A   Overcast
2:35 AM 34.9 °F - 32.5 °F 91% 30.29 in 10.0 mi Calm Calm - N/A   Overcast
2:55 AM 35.1 °F - 32.4 °F 90% 30.30 in 10.0 mi Calm Calm - N/A   Overcast
3:15 AM 35.1 °F - 32.4 °F 90% 30.31 in 10.0 mi Calm Calm - N/A   Overcast
3:35 AM 35.1 °F 32.2 °F 32.0 °F 89% 30.31 in 10.0 mi WNW 3.5 mph - N/A   Overcast
3:55 AM 35.1 °F - 31.8 °F 88% 30.31 in 10.0 mi Calm Calm - N/A   Overcast
4:15 AM 34.9 °F 32.0 °F 32.0 °F 89% 30.31 in 10.0 mi West 3.5 mph - N/A   Overcast
4:35 AM 34.9 °F 32.0 °F 31.3 °F 87% 30.33 in 10.0 mi West 3.5 mph - N/A   Overcast
4:55 AM 34.7 °F 31.8 °F 30.7 °F 85% 30.33 in 10.0 mi West 3.5 mph - N/A   Overcast
5:15 AM 34.9 °F 32.0 °F 29.5 °F 81% 30.33 in 10.0 mi West 3.5 mph - N/A   Overcast
5:35 AM 34.2 °F - 28.4 °F 79% 30.34 in 10.0 mi Calm Calm - N/A   Overcast
5:55 AM 34.3 °F 31.4 °F 28.2 °F 78% 30.34 in 10.0 mi WNW 3.5 mph - N/A   Overcast
6:15 AM 34.2 °F - 28.4 °F 79% 30.35 in 10.0 mi Calm Calm - N/A   Overcast
6:35 AM 33.8 °F 30.8 °F 27.5 °F 78% 30.35 in 10.0 mi West 3.5 mph - N/A   Overcast
6:55 AM 33.1 °F 30.0 °F 27.3 °F 79% 30.36 in 10.0 mi West 3.5 mph - N/A   Scattered Clouds
7:15 AM 32.9 °F - 27.1 °F 79% 30.37 in 10.0 mi Calm Calm - N/A   Clear
7:35 AM 32.5 °F - 27.1 °F 80% 30.38 in 10.0 mi Calm Calm - N/A   Clear
7:55 AM 32.7 °F - 27.5 °F 81% 30.38 in 10.0 mi Calm Calm - N/A   Scattered Clouds
8:15 AM 33.1 °F 30.0 °F 28.2 °F 82% 30.39 in 10.0 mi West 3.5 mph - N/A   Mostly Cloudy
8:35 AM 33.3 °F 30.2 °F 28.6 °F 83% 30.39 in 10.0 mi West 3.5 mph - N/A   Mostly Cloudy
8:55 AM 34.0 °F 29.8 °F 28.8 °F 81% 30.40 in 10.0 mi WSW 4.6 mph - N/A   Mostly Cloudy
9:15 AM 35.1 °F 30.1 °F 28.9 °F 78% 30.40 in 10.0 mi WSW 5.8 mph - N/A   Mostly Cloudy
9:35 AM 35.6 °F 31.7 °F 28.8 °F 76% 30.41 in 10.0 mi West 4.6 mph - N/A   Mostly Cloudy
9:55 AM 35.6 °F 32.8 °F 28.4 °F 75% 30.42 in 10.0 mi West 3.5 mph - N/A   Overcast
10:15 AM 36.7 °F 32.9 °F 28.9 °F 74% 30.42 in 10.0 mi SW 4.6 mph - N/A   Overcast
10:55 AM 37.2 °F 31.9 °F 29.3 °F 73% 30.43 in 10.0 mi WSW 6.9 mph - N/A   Overcast
11:15 AM 36.9 °F 31.4 °F 29.1 °F 74% 30.42 in 10.0 mi West 6.9 mph - N/A   Overcast
11:35 AM 37.4 °F 32.8 °F 29.3 °F 73% 30.42 in 10.0 mi WSW 5.8 mph - N/A   Overcast
11:55 AM 37.6 °F 35.1 °F 29.1 °F 72% 30.41 in 10.0 mi WSW 3.5 mph - N/A   Mostly Cloudy
12:15 PM 38.5 °F 36.1 °F 29.3 °F 70% 30.41 in 10.0 mi West 3.5 mph - N/A   Overcast
12:35 PM 38.5 °F 36.1 °F 28.6 °F 68% 30.40 in 10.0 mi West 3.5 mph - N/A   Overcast
1:15 PM 40.8 °F 37.8 °F 29.1 °F 63% 30.38 in 10.0 mi WSW 4.6 mph - N/A   Mostly Cloudy
1:35 PM 40.5 °F 38.4 °F 29.3 °F 64% 30.37 in 10.0 mi WSW 3.5 mph - N/A   Mostly Cloudy
1:55 PM 41.7 °F 38.8 °F 28.6 °F 60% 30.37 in 10.0 mi West 4.6 mph - N/A   Scattered Clouds
2:15 PM 41.9 °F 40.0 °F 28.8 °F 60% 30.36 in 10.0 mi WSW 3.5 mph - N/A   Clear
2:35 PM 41.7 °F 38.0 °F 27.7 °F 58% 30.36 in 10.0 mi West 5.8 mph - N/A   Clear
2:55 PM 42.1 °F 37.7 °F 27.7 °F 57% 30.35 in 10.0 mi West 6.9 mph - N/A   Clear
3:15 PM 42.4 °F 40.7 °F 27.7 °F 56% 30.35 in 10.0 mi WSW 3.5 mph - N/A   Clear
3:35 PM 42.8 °F 41.1 °F 27.5 °F 55% 30.35 in 10.0 mi West 3.5 mph - N/A   Clear
3:55 PM 42.3 °F 39.4 °F 26.8 °F 54% 30.36 in 10.0 mi West 4.6 mph - N/A   Clear
4:15 PM 42.3 °F 40.5 °F 26.4 °F 54% 30.36 in 10.0 mi West 3.5 mph - N/A   Clear
4:35 PM 41.9 °F - 26.2 °F 54% 30.36 in 10.0 mi Calm Calm - N/A   Clear
4:55 PM 41.0 °F - 26.2 °F 56% 30.36 in 10.0 mi Calm Calm - N/A   Clear
5:15 PM 40.5 °F 38.4 °F 25.7 °F 56% 30.36 in 10.0 mi West 3.5 mph - N/A   Clear
5:35 PM 39.7 °F - 25.7 °F 57% 30.36 in 10.0 mi Calm Calm - N/A   Clear
5:55 PM 39.4 °F - 25.7 °F 58% 30.36 in 10.0 mi Calm Calm - N/A   Clear
6:15 PM 39.2 °F - 25.7 °F 58% 30.37 in 10.0 mi Calm Calm - N/A   Clear
6:35 PM 38.5 °F - 25.7 °F 60% 30.37 in 10.0 mi Calm Calm - N/A   Clear
6:55 PM 38.1 °F - 25.7 °F 61% 30.38 in 10.0 mi Calm Calm - N/A   Clear
7:15 PM 37.0 °F - 25.7 °F 64% 30.38 in 10.0 mi Calm Calm - N/A   Clear
7:35 PM 36.5 °F - 25.9 °F 65% 30.39 in 10.0 mi Calm Calm - N/A   Clear
7:55 PM 36.5 °F 33.9 °F 26.1 °F 66% 30.39 in 10.0 mi WNW 3.5 mph - N/A   Clear
8:15 PM 33.4 °F 30.4 °F 26.4 °F 75% 30.39 in 10.0 mi North 3.5 mph - N/A   Clear
8:35 PM 36.5 °F - 24.6 °F 62% 30.39 in 10.0 mi Calm Calm - N/A   Clear
8:55 PM 35.2 °F - 24.8 °F 66% 30.40 in 10.0 mi Calm Calm - N/A   Clear
9:15 PM 34.7 °F - 24.8 °F 67% 30.40 in 10.0 mi Calm Calm - N/A   Clear
9:35 PM 34.0 °F - 25.3 °F 71% 30.40 in 10.0 mi Calm Calm - N/A   Clear
9:55 PM 34.5 °F - 24.6 °F 67% 30.41 in 10.0 mi Calm Calm - N/A   Clear
10:15 PM 32.7 °F - 24.6 °F 72% 30.41 in 10.0 mi Calm Calm - N/A   Clear
10:35 PM 32.9 °F - 25.3 °F 74% 30.41 in 10.0 mi Calm Calm - N/A   Clear
10:55 PM 31.8 °F - 27.3 °F 83% 30.41 in 10.0 mi Calm Calm - N/A   Clear
11:15 PM 32.2 °F - 26.8 °F 80% 30.40 in 10.0 mi Calm Calm - N/A   Clear
11:35 PM 30.0 °F - 26.8 °F 88% 30.40 in 10.0 mi Calm Calm - N/A   Clear
11:55 PM 31.1 °F - 26.6 °F 83% 30.40 in 10.0 mi Calm Calm - N/A   Clear